| time (UTC) | temp C | wind direction | speed KPH | gust KPH | rain 1hr cm | rain 24hr cm | rain mn cm | humidity % | barometer mb |
| 20260510091013 | 25 | 23 | 0.0 | 0.0 | 0.00 | 0.00 | 0.00 | 27 | 1007.3 |
| 20260510090514 | 25 | 23 | 0.0 | 0.0 | 0.00 | 0.00 | 0.00 | 27 | 1007.3 |
| 20260510090245 | 25 | 45 | 0.0 | 0.0 | 0.00 | 0.00 | 0.00 | 27 | 1007.3 |
| 20260510085519 | 25 | 23 | 0.0 | 0.0 | 0.00 | 0.00 | 0.00 | 27 | 1007.3 |
| 20260510085514 | 25 | 68 | 0.0 | 0.0 | 0.00 | 0.00 | 0.00 | 27 | 1007.3 |
| 20260510084513 | 25 | 270 | 0.0 | 0.0 | 0.00 | 0.00 | 0.00 | 27 | 1007.3 |
| 20260510084013 | 25 | 68 | 0.0 | 0.0 | 0.00 | 0.00 | 0.00 | 25 | 1007.3 |
| 20260510083513 | 25 | 23 | 0.0 | 0.0 | 0.00 | 0.00 | 0.00 | 27 | 1007.3 |
| 20260510083015 | 25 | 23 | 0.0 | 0.0 | 0.00 | 0.00 | 0.00 | 25 | 1007.3 |
| 20260510082514 | 25 | 135 | 0.0 | 0.0 | 0.00 | 0.00 | 0.00 | 25 | 1007.3 |
| 20260510082014 | 25 | 45 | 0.0 | 1.6 | 0.00 | 0.00 | 0.00 | 27 | 1007.3 |
| 20260510081515 | 25 | 113 | 0.0 | 1.6 | 0.00 | 0.00 | 0.00 | 25 | 1007.3 |
| 20260510081018 | 25 | 158 | 0.0 | 0.0 | 0.00 | 0.00 | 0.00 | 25 | 1007.3 |
| 20260510081014 | 25 | 0 | 0.0 | 1.6 | 0.00 | 0.00 | 0.00 | 25 | 1007.3 |
| 20260510080013 | 26 | 0 | 0.0 | 0.0 | 0.00 | 0.00 | 0.00 | 25 | 1007.3 |
| 20260510075512 | 26 | 158 | 0.0 | 0.0 | 0.00 | 0.00 | 0.00 | 25 | 1007.3 |
| 20260510075013 | 26 | 180 | 0.0 | 0.0 | 0.00 | 0.00 | 0.00 | 25 | 1007.3 |
| 20260510074512 | 26 | 23 | 0.0 | 0.0 | 0.00 | 0.00 | 0.00 | 25 | 1007.3 |
| 20260510074014 | 26 | 0 | 0.0 | 0.0 | 0.00 | 0.00 | 0.00 | 25 | 1007.3 |
| 20260510073746 | 26 | 45 | 0.0 | 0.0 | 0.00 | 0.00 | 0.00 | 25 | 1007.3 |
| 20260510073014 | 26 | 45 | 0.0 | 0.0 | 0.00 | 0.00 | 0.00 | 25 | 1007.3 |
| 20260510072514 | 26 | 68 | 0.0 | 0.0 | 0.00 | 0.00 | 0.00 | 25 | 1007.3 |
| 20260510072014 | 26 | 90 | 0.0 | 0.0 | 0.00 | 0.00 | 0.00 | 24 | 1006.9 |
| 20260510071514 | 26 | 90 | 0.0 | 0.0 | 0.00 | 0.00 | 0.00 | 24 | 1006.9 |
| 20260510071244 | 26 | 45 | 0.0 | 0.0 | 0.00 | 0.00 | 0.00 | 22 | 1006.9 |
| 20260510070512 | 26 | 68 | 0.0 | 0.0 | 0.00 | 0.00 | 0.00 | 22 | 1006.9 |
| 20260510070014 | 27 | 0 | 0.0 | 0.0 | 0.00 | 0.00 | 0.00 | 22 | 1007.3 |
| 20260510065514 | 27 | 113 | 0.0 | 0.0 | 0.00 | 0.00 | 0.00 | 22 | 1006.9 |
| 20260510065014 | 27 | 23 | 0.0 | 0.0 | 0.00 | 0.00 | 0.00 | 22 | 1007.3 |
| 20260510064745 | 27 | 68 | 0.0 | 0.0 | 0.00 | 0.00 | 0.00 | 22 | 1006.9 |
| 20260510064014 | 27 | 338 | 0.0 | 0.0 | 0.00 | 0.00 | 0.00 | 22 | 1006.9 |
| 20260510063514 | 27 | 135 | 0.0 | 1.6 | 0.00 | 0.00 | 0.00 | 22 | 1006.9 |
| 20260510063244 | 27 | 68 | 0.0 | 3.2 | 0.00 | 0.00 | 0.00 | 22 | 1006.9 |
| 20260510062512 | 28 | 45 | 0.0 | 3.2 | 0.00 | 0.00 | 0.00 | 22 | 1006.9 |
| 20260510062013 | 28 | 113 | 0.0 | 1.6 | 0.00 | 0.00 | 0.00 | 22 | 1006.9 |
| 20260510061513 | 28 | 45 | 0.0 | 1.6 | 0.00 | 0.00 | 0.00 | 22 | 1006.9 |
| 20260510061014 | 28 | 45 | 0.0 | 1.6 | 0.00 | 0.00 | 0.00 | 22 | 1006.9 |
| 20260510060745 | 28 | 68 | 0.0 | 4.8 | 0.00 | 0.00 | 0.00 | 20 | 1006.9 |
| 20260510060245 | 28 | 0 | 0.0 | 4.8 | 0.00 | 0.00 | 0.00 | 22 | 1006.5 |
| 20260510055514 | 28 | 68 | 0.0 | 0.0 | 0.00 | 0.00 | 0.00 | 22 | 1006.2 |
| 20260510055014 | 28 | 45 | 0.0 | 0.0 | 0.00 | 0.00 | 0.00 | 22 | 1006.5 |
| 20260510054513 | 29 | 158 | 0.0 | 0.0 | 0.00 | 0.00 | 0.00 | 22 | 1006.5 |
| 20260510054013 | 29 | 158 | 0.0 | 0.0 | 0.00 | 0.00 | 0.00 | 22 | 1006.5 |
| 20260510053513 | 29 | 158 | 0.0 | 0.0 | 0.00 | 0.00 | 0.00 | 22 | 1006.5 |
| 20260510053012 | 29 | 180 | 0.0 | 0.0 | 0.00 | 0.00 | 0.00 | 20 | 1006.2 |
| 20260510052744 | 29 | 68 | 0.0 | 0.0 | 0.00 | 0.00 | 0.00 | 20 | 1006.2 |
| 20260510052014 | 30 | 135 | 0.0 | 0.0 | 0.00 | 0.00 | 0.00 | 20 | 1006.2 |
| 20260510051514 | 30 | 180 | 0.0 | 0.0 | 0.00 | 0.00 | 0.00 | 19 | 1006.2 |
| 20260510051244 | 30 | 68 | 0.0 | 0.0 | 0.00 | 0.00 | 0.00 | 20 | 1005.9 |
| 20260510050520 | 31 | 338 | 0.0 | 0.0 | 0.00 | 0.00 | 0.00 | 20 | 1006.2 |
| 20260510050514 | 30 | 68 | 0.0 | 0.0 | 0.00 | 0.00 | 0.00 | 20 | 1005.9 |
| 20260510050014 | 30 | 68 | 0.0 | 0.0 | 0.00 | 0.00 | 0.00 | 20 | 1006.2 |
| 20260510045243 | 31 | 338 | 0.0 | 0.0 | 0.00 | 0.00 | 0.00 | 20 | 1005.9 |
| 20260510044513 | 31 | 68 | 0.0 | 0.0 | 0.00 | 0.00 | 0.00 | 19 | 1005.9 |
| 20260510044013 | 31 | 68 | 0.0 | 0.0 | 0.00 | 0.00 | 0.00 | 19 | 1005.9 |
| 20260510043518 | 31 | 113 | 0.0 | 0.0 | 0.00 | 0.00 | 0.00 | 19 | 1005.9 |
| 20260510043514 | 31 | 68 | 0.0 | 0.0 | 0.00 | 0.00 | 0.00 | 20 | 1005.9 |
| 20260510042745 | 32 | 113 | 0.0 | 0.0 | 0.00 | 0.00 | 0.00 | 17 | 1005.9 |
| 20260510042014 | 32 | 180 | 0.0 | 0.0 | 0.00 | 0.00 | 0.00 | 17 | 1005.9 |
| 20260510041514 | 32 | 180 | 0.0 | 0.0 | 0.00 | 0.00 | 0.00 | 17 | 1005.9 |
| 20260510041013 | 32 | 180 | 0.0 | 0.0 | 0.00 | 0.00 | 0.00 | 15 | 1005.9 |
| 20260510040513 | 32 | 270 | 0.0 | 0.0 | 0.00 | 0.00 | 0.00 | 15 | 1005.9 |
| 20260510040244 | 32 | 270 | 0.0 | 0.0 | 0.00 | 0.00 | 0.00 | 15 | 1005.5 |
| 20260510035512 | 33 | 338 | 0.0 | 1.6 | 0.00 | 0.00 | 0.00 | 13 | 1005.5 |
| 20260510035014 | 33 | 203 | 0.0 | 1.6 | 0.00 | 0.00 | 0.00 | 13 | 1005.5 |
| 20260510034514 | 33 | 270 | 0.0 | 1.6 | 0.00 | 0.00 | 0.00 | 13 | 1005.5 |
| 20260510034014 | 33 | 270 | 0.0 | 3.2 | 0.00 | 0.00 | 0.00 | 12 | 1005.2 |
| 20260510033744 | 33 | 293 | 0.0 | 3.2 | 0.00 | 0.00 | 0.00 | 12 | 1005.2 |
| 20260510033014 | 33 | 248 | 0.0 | 3.2 | 0.00 | 0.00 | 0.00 | 12 | 1005.2 |
| 20260510032744 | 33 | 248 | 0.0 | 4.8 | 0.00 | 0.00 | 0.00 | 12 | 1005.2 |
| 20260510032012 | 33 | 270 | 0.0 | 6.4 | 0.00 | 0.00 | 0.00 | 12 | 1005.2 |
| 20260510031512 | 33 | 293 | 1.6 | 6.4 | 0.00 | 0.00 | 0.00 | 12 | 1005.2 |
| 20260510031013 | 34 | 293 | 1.6 | 8.0 | 0.00 | 0.00 | 0.00 | 12 | 1005.2 |
| 20260510030513 | 34 | 338 | 1.6 | 9.7 | 0.00 | 0.00 | 0.00 | 12 | 1005.2 |
| 20260510030246 | 34 | 293 | 1.6 | 9.7 | 0.00 | 0.00 | 0.00 | 12 | 1004.8 |
| 20260510025745 | 34 | 270 | 1.6 | 9.7 | 0.00 | 0.00 | 0.00 | 12 | 1004.8 |
| 20260510025014 | 35 | 270 | 1.6 | 9.7 | 0.00 | 0.00 | 0.00 | 12 | 1004.8 |
| 20260510024514 | 35 | 270 | 1.6 | 9.7 | 0.00 | 0.00 | 0.00 | 12 | 1004.8 |
| 20260510024244 | 35 | 270 | 1.6 | 9.7 | 0.00 | 0.00 | 0.00 | 12 | 1004.8 |
| 20260510023512 | 35 | 270 | 1.6 | 11.3 | 0.00 | 0.00 | 0.00 | 12 | 1004.5 |
| 20260510023012 | 35 | 338 | 1.6 | 11.3 | 0.00 | 0.00 | 0.00 | 12 | 1004.5 |
| 20260510022513 | 35 | 270 | 1.6 | 11.3 | 0.00 | 0.00 | 0.00 | 12 | 1004.5 |
| 20260510022244 | 35 | 315 | 1.6 | 8.0 | 0.00 | 0.00 | 0.00 | 12 | 1004.5 |
| 20260510021514 | 35 | 113 | 1.6 | 14.5 | 0.00 | 0.00 | 0.00 | 12 | 1004.5 |
| 20260510021013 | 36 | 315 | 1.6 | 14.5 | 0.00 | 0.00 | 0.00 | 12 | 1004.1 |
| 20260510020513 | 36 | 270 | 1.6 | 9.7 | 0.00 | 0.00 | 0.00 | 12 | 1004.5 |
| 20260510020014 | 36 | 225 | 1.6 | 11.3 | 0.00 | 0.00 | 0.00 | 12 | 1004.5 |
| 20260510015513 | 36 | 270 | 1.6 | 12.9 | 0.00 | 0.00 | 0.00 | 12 | 1004.5 |
| 20260510015014 | 36 | 248 | 3.2 | 12.9 | 0.00 | 0.00 | 0.00 | 12 | 1004.1 |
| 20260510014743 | 36 | 270 | 3.2 | 12.9 | 0.00 | 0.00 | 0.00 | 12 | 1004.1 |
| 20260510014012 | 36 | 248 | 3.2 | 12.9 | 0.00 | 0.00 | 0.00 | 12 | 1004.1 |
| 20260510013512 | 37 | 315 | 3.2 | 11.3 | 0.00 | 0.00 | 0.00 | 12 | 1004.1 |
| 20260510013013 | 37 | 248 | 3.2 | 9.7 | 0.00 | 0.00 | 0.00 | 12 | 1004.1 |
| 20260510012513 | 37 | 248 | 1.6 | 11.3 | 0.00 | 0.00 | 0.00 | 12 | 1004.5 |
| 20260510012013 | 37 | 270 | 1.6 | 16.1 | 0.00 | 0.00 | 0.00 | 12 | 1004.1 |
| 20260510011513 | 37 | 315 | 3.2 | 16.1 | 0.00 | 0.00 | 0.00 | 11 | 1004.5 |
| 20260510011248 | 37 | 270 | 3.2 | 12.9 | 0.00 | 0.00 | 0.00 | 11 | 1004.1 |
| 20260510011013 | 37 | 68 | 1.6 | 11.3 | 0.00 | 0.00 | 0.00 | 12 | 1004.1 |
| 20260510010012 | 37 | 270 | 3.2 | 14.5 | 0.00 | 0.00 | 0.00 | 11 | 1004.1 |
| 20260510005512 | 38 | 270 | 3.2 | 14.5 | 0.00 | 0.00 | 0.00 | 11 | 1004.1 |
| 20260510005012 | 38 | 248 | 1.6 | 11.3 | 0.00 | 0.00 | 0.00 | 11 | 1004.1 |
| 20260510004512 | 38 | 293 | 3.2 | 12.9 | 0.00 | 0.00 | 0.00 | 11 | 1004.5 |
| 20260510004012 | 38 | 293 | 1.6 | 12.9 | 0.00 | 0.00 | 0.00 | 11 | 1004.1 |
| 20260510003512 | 38 | 225 | 1.6 | 11.3 | 0.00 | 0.00 | 0.00 | 11 | 1004.5 |
| 20260510003243 | 38 | 225 | 3.2 | 12.9 | 0.00 | 0.00 | 0.00 | 11 | 1004.5 |
| 20260510002511 | 38 | 203 | 3.2 | 14.5 | 0.00 | 0.00 | 0.00 | 11 | 1004.1 |
| 20260510002011 | 38 | 180 | 1.6 | 14.5 | 0.00 | 0.00 | 0.00 | 11 | 1004.5 |
| 20260510001511 | 38 | 248 | 3.2 | 14.5 | 0.00 | 0.00 | 0.00 | 11 | 1004.5 |
| 20260510001011 | 39 | 180 | 3.2 | 17.7 | 0.00 | 0.00 | 0.00 | 10 | 1004.5 |
| 20260510000511 | 39 | 203 | 3.2 | 17.7 | 0.00 | 0.00 | 0.00 | 10 | 1004.1 |
| 20260510000242 | 39 | 225 | 1.6 | 9.7 | 0.00 | 0.00 | 0.00 | 10 | 1004.1 |
| 20260509235511 | 39 | 270 | 1.6 | 11.3 | 0.00 | 0.00 | 0.00 | 11 | 1004.5 |
| 20260509235012 | 39 | 270 | 1.6 | 12.9 | 0.00 | 0.00 | 0.00 | 11 | 1004.5 |
| 20260509234511 | 39 | 293 | 1.6 | 12.9 | 0.00 | 0.00 | 0.00 | 11 | 1004.5 |
| 20260509234241 | 39 | 225 | 1.6 | 11.3 | 0.00 | 0.00 | 0.00 | 11 | 1004.5 |
| 20260509233511 | 39 | 270 | 3.2 | 11.3 | 0.00 | 0.00 | 0.00 | 10 | 1004.5 |
| 20260509233241 | 39 | 248 | 1.6 | 11.3 | 0.00 | 0.00 | 0.00 | 10 | 1004.8 |
| 20260509232742 | 39 | 225 | 3.2 | 14.5 | 0.00 | 0.00 | 0.00 | 10 | 1004.8 |
| 20260509232010 | 39 | 248 | 3.2 | 29.0 | 0.00 | 0.00 | 0.00 | 11 | 1004.8 |
| 20260509231511 | 39 | 225 | 3.2 | 29.0 | 0.00 | 0.00 | 0.00 | 12 | 1004.1 |
| 20260509231010 | 39 | 338 | 1.6 | 9.7 | 0.00 | 0.00 | 0.00 | 12 | 1004.8 |
| 20260509230512 | 39 | 203 | 3.2 | 9.7 | 0.00 | 0.00 | 0.00 | 10 | 1004.8 |
| 20260509230011 | 39 | 45 | 1.6 | 9.7 | 0.00 | 0.00 | 0.00 | 12 | 1004.8 |
| 20260509225509 | 40 | 180 | 1.6 | 14.5 | 0.00 | 0.00 | 0.00 | 10 | 1004.8 |
| 20260509225010 | 40 | 68 | 1.6 | 14.5 | 0.00 | 0.00 | 0.00 | 12 | 1005.2 |
| 20260509224509 | 40 | 315 | 3.2 | 11.3 | 0.00 | 0.00 | 0.00 | 11 | 1005.2 |
| 20260509224241 | 40 | 68 | 1.6 | 11.3 | 0.00 | 0.00 | 0.00 | 12 | 1005.2 |
| 20260509223509 | 40 | 270 | 3.2 | 17.7 | 0.00 | 0.00 | 0.00 | 12 | 1005.5 |
| 20260509223011 | 39 | 338 | 3.2 | 17.7 | 0.00 | 0.00 | 0.00 | 12 | 1005.5 |
| 20260509222741 | 39 | 270 | 3.2 | 11.3 | 0.00 | 0.00 | 0.00 | 12 | 1005.5 |
| 20260509222242 | 39 | 225 | 1.6 | 14.5 | 0.00 | 0.00 | 0.00 | 11 | 1005.5 |
| 20260509221510 | 39 | 270 | 3.2 | 14.5 | 0.00 | 0.00 | 0.00 | 12 | 1005.5 |
| 20260509221009 | 39 | 225 | 1.6 | 11.3 | 0.00 | 0.00 | 0.00 | 12 | 1005.9 |
| 20260509220509 | 39 | 45 | 1.6 | 9.7 | 0.00 | 0.00 | 0.00 | 12 | 1005.5 |
| 20260509220009 | 39 | 135 | 1.6 | 9.7 | 0.00 | 0.00 | 0.00 | 12 | 1005.9 |
| 20260509215508 | 39 | 338 | 1.6 | 11.3 | 0.00 | 0.00 | 0.00 | 12 | 1005.9 |
| 20260509215009 | 39 | 293 | 3.2 | 12.9 | 0.00 | 0.00 | 0.00 | 12 | 1006.2 |
| 20260509214510 | 39 | 203 | 3.2 | 12.9 | 0.00 | 0.00 | 0.00 | 11 | 1005.9 |
| 20260509214010 | 38 | 293 | 1.6 | 8.0 | 0.00 | 0.00 | 0.00 | 12 | 1006.2 |
| 20260509213510 | 38 | 68 | 1.6 | 12.9 | 0.00 | 0.00 | 0.00 | 12 | 1006.2 |
| 20260509213010 | 38 | 270 | 1.6 | 12.9 | 0.00 | 0.00 | 0.00 | 12 | 1006.5 |
| 20260509212740 | 38 | 45 | 3.2 | 12.9 | 0.00 | 0.00 | 0.00 | 12 | 1006.5 |
| 20260509212010 | 38 | 180 | 3.2 | 14.5 | 0.00 | 0.00 | 0.00 | 12 | 1006.5 |
| 20260509211504 | 38 | 270 | 3.2 | 14.5 | 0.00 | 0.00 | 0.00 | 12 | 1006.5 |
| 20260509210950 | 38 | 270 | 0.0 | 9.7 | 0.00 | 0.00 | 0.00 | 13 | 1006.5 |
| 20260509210721 | 38 | 338 | 1.6 | 9.7 | 0.00 | 0.00 | 0.00 | 12 | 1006.5 |
| 20260509210221 | 38 | 45 | 1.6 | 11.3 | 0.00 | 0.00 | 0.00 | 13 | 1006.9 |
| 20260509205722 | 38 | 180 | 1.6 | 12.9 | 0.00 | 0.00 | 0.00 | 12 | 1007.3 |
| 20260509204951 | 38 | 225 | 3.2 | 12.9 | 0.00 | 0.00 | 0.00 | 12 | 1007.3 |
| 20260509204451 | 38 | 135 | 1.6 | 11.3 | 0.00 | 0.00 | 0.00 | 12 | 1007.3 |
| 20260509203949 | 38 | 270 | 3.2 | 11.3 | 0.00 | 0.00 | 0.00 | 12 | 1007.3 |
| 20260509203448 | 37 | 270 | 1.6 | 12.9 | 0.00 | 0.00 | 0.00 | 12 | 1007.3 |
| 20260509202949 | 37 | 270 | 3.2 | 12.9 | 0.00 | 0.00 | 0.00 | 12 | 1007.6 |
| 20260509202449 | 37 | 23 | 1.6 | 14.5 | 0.00 | 0.00 | 0.00 | 12 | 1007.3 |
| 20260509201949 | 37 | 203 | 3.2 | 14.5 | 0.00 | 0.00 | 0.00 | 12 | 1007.6 |
| 20260509201450 | 37 | 23 | 1.6 | 11.3 | 0.00 | 0.00 | 0.00 | 13 | 1007.6 |
| 20260509200949 | 37 | 23 | 1.6 | 8.0 | 0.00 | 0.00 | 0.00 | 13 | 1008.0 |
| 20260509200450 | 37 | 293 | 1.6 | 6.4 | 0.00 | 0.00 | 0.00 | 13 | 1008.0 |
| 20260509195949 | 37 | 135 | 1.6 | 9.7 | 0.00 | 0.00 | 0.00 | 15 | 1008.0 |
| 20260509195449 | 37 | 293 | 1.6 | 9.7 | 0.00 | 0.00 | 0.00 | 15 | 1008.0 |
| 20260509195220 | 37 | 225 | 1.6 | 8.0 | 0.00 | 0.00 | 0.00 | 15 | 1008.3 |
| 20260509194719 | 37 | 23 | 1.6 | 8.0 | 0.00 | 0.00 | 0.00 | 13 | 1008.0 |
| 20260509193949 | 37 | 270 | 1.6 | 8.0 | 0.00 | 0.00 | 0.00 | 15 | 1008.3 |
| 20260509193448 | 36 | 270 | 1.6 | 8.0 | 0.00 | 0.00 | 0.00 | 15 | 1008.3 |
| 20260509192950 | 36 | 68 | 1.6 | 6.4 | 0.00 | 0.00 | 0.00 | 13 | 1008.3 |
| 20260509192449 | 36 | 0 | 1.6 | 9.7 | 0.00 | 0.00 | 0.00 | 15 | 1008.3 |
| 20260509191949 | 36 | 338 | 1.6 | 9.7 | 0.00 | 0.00 | 0.00 | 13 | 1008.3 |
| 20260509191452 | 36 | 158 | 0.0 | 9.7 | 0.00 | 0.00 | 0.00 | 15 | 1008.7 |
| 20260509190950 | 36 | 270 | 1.6 | 9.7 | 0.00 | 0.00 | 0.00 | 15 | 1008.7 |
| 20260509190718 | 36 | 270 | 1.6 | 8.0 | 0.00 | 0.00 | 0.00 | 15 | 1008.7 |
| 20260509185948 | 36 | 225 | 0.0 | 6.4 | 0.00 | 0.00 | 0.00 | 15 | 1008.7 |
| 20260509185449 | 36 | 135 | 0.0 | 8.0 | 0.00 | 0.00 | 0.00 | 15 | 1008.7 |
| 20260509184948 | 36 | 180 | 1.6 | 8.0 | 0.00 | 0.00 | 0.00 | 13 | 1008.7 |
| 20260509184720 | 36 | 158 | 0.0 | 6.4 | 0.00 | 0.00 | 0.00 | 15 | 1009.0 |
| 20260509183949 | 36 | 203 | 0.0 | 6.4 | 0.00 | 0.00 | 0.00 | 15 | 1009.0 |
| 20260509183450 | 36 | 225 | 1.6 | 6.4 | 0.00 | 0.00 | 0.00 | 15 | 1009.0 |
| 20260509182949 | 35 | 180 | 0.0 | 6.4 | 0.00 | 0.00 | 0.00 | 15 | 1009.3 |
| 20260509182438 | 35 | 90 | 0.0 | 9.7 | 0.00 | 0.00 | 0.00 | 15 | 1009.0 |
| 20260509182201 | 35 | 158 | 1.6 | 9.7 | 0.00 | 0.00 | 0.00 | 15 | 1009.3 |
| 20260509181430 | 35 | 45 | 1.6 | 8.0 | 0.00 | 0.00 | 0.00 | 15 | 1009.3 |
| 20260509180930 | 35 | 270 | 1.6 | 8.0 | 0.00 | 0.00 | 0.00 | 15 | 1009.3 |
| 20260509180429 | 35 | 158 | 0.0 | 4.8 | 0.00 | 0.00 | 0.00 | 15 | 1009.7 |
| 20260509175931 | 35 | 270 | 0.0 | 4.8 | 0.00 | 0.00 | 0.00 | 15 | 1009.7 |
| 20260509175431 | 35 | 180 | 0.0 | 4.8 | 0.00 | 0.00 | 0.00 | 17 | 1009.7 |
| 20260509174930 | 35 | 338 | 0.0 | 4.8 | 0.00 | 0.00 | 0.00 | 17 | 1009.7 |
| 20260509174430 | 34 | 113 | 0.0 | 8.0 | 0.00 | 0.00 | 0.00 | 17 | 1009.7 |
| 20260509174202 | 34 | 158 | 1.6 | 8.0 | 0.00 | 0.00 | 0.00 | 17 | 1009.7 |
| 20260509173701 | 34 | 180 | 1.6 | 6.4 | 0.00 | 0.00 | 0.00 | 17 | 1009.7 |
| 20260509172929 | 33 | 23 | 0.0 | 4.8 | 0.00 | 0.00 | 0.00 | 17 | 1010.0 |
| 20260509172429 | 33 | 158 | 0.0 | 4.8 | 0.00 | 0.00 | 0.00 | 17 | 1010.0 |
| 20260509171929 | 33 | 23 | 0.0 | 4.8 | 0.00 | 0.00 | 0.00 | 19 | 1010.0 |
| 20260509171431 | 33 | 203 | 1.6 | 4.8 | 0.00 | 0.00 | 0.00 | 17 | 1010.0 |
| 20260509171202 | 33 | 203 | 0.0 | 3.2 | 0.00 | 0.00 | 0.00 | 19 | 1010.0 |
| 20260509170430 | 33 | 45 | 0.0 | 4.8 | 0.00 | 0.00 | 0.00 | 19 | 1010.0 |
| 20260509170202 | 32 | 248 | 0.0 | 4.8 | 0.00 | 0.00 | 0.00 | 19 | 1010.0 |
| 20260509165431 | 32 | 180 | 0.0 | 6.4 | 0.00 | 0.00 | 0.00 | 19 | 1010.0 |
| 20260509164929 | 32 | 45 | 0.0 | 6.4 | 0.00 | 0.00 | 0.00 | 19 | 1010.0 |
| 20260509164429 | 32 | 158 | 0.0 | 6.4 | 0.00 | 0.00 | 0.00 | 19 | 1010.0 |
| 20260509163929 | 32 | 180 | 1.6 | 4.8 | 0.00 | 0.00 | 0.00 | 20 | 1010.0 |
| 20260509163430 | 32 | 225 | 0.0 | 3.2 | 0.00 | 0.00 | 0.00 | 20 | 1010.0 |
| 20260509162931 | 31 | 180 | 0.0 | 4.8 | 0.00 | 0.00 | 0.00 | 20 | 1010.0 |
| 20260509162701 | 31 | 203 | 0.0 | 4.8 | 0.00 | 0.00 | 0.00 | 20 | 1010.0 |
| 20260509161930 | 31 | 180 | 1.6 | 6.4 | 0.00 | 0.00 | 0.00 | 20 | 1010.0 |
| 20260509161431 | 31 | 225 | 0.0 | 6.4 | 0.00 | 0.00 | 0.00 | 20 | 1010.0 |
| 20260509160930 | 30 | 293 | 0.0 | 4.8 | 0.00 | 0.00 | 0.00 | 20 | 1010.0 |
| 20260509160411 | 30 | 68 | 0.0 | 4.8 | 0.00 | 0.00 | 0.00 | 20 | 1010.0 |
| 20260509155910 | 30 | 180 | 0.0 | 4.8 | 0.00 | 0.00 | 0.00 | 22 | 1010.0 |
| 20260509155410 | 30 | 135 | 0.0 | 4.8 | 0.00 | 0.00 | 0.00 | 22 | 1010.0 |
| 20260509155141 | 29 | 158 | 0.0 | 4.8 | 0.00 | 0.00 | 0.00 | 22 | 1010.0 |
| 20260509154410 | 29 | 158 | 0.0 | 3.2 | 0.00 | 0.00 | 0.00 | 22 | 1010.0 |
| 20260509153911 | 29 | 180 | 0.0 | 1.6 | 0.00 | 0.00 | 0.00 | 22 | 1010.0 |
| 20260509153411 | 28 | 225 | 0.0 | 1.6 | 0.00 | 0.00 | 0.00 | 22 | 1010.0 |
| 20260509152912 | 28 | 68 | 0.0 | 3.2 | 0.00 | 0.00 | 0.00 | 22 | 1009.7 |
| 20260509152643 | 28 | 180 | 0.0 | 3.2 | 0.00 | 0.00 | 0.00 | 22 | 1010.0 |
| 20260509151910 | 28 | 203 | 0.0 | 3.2 | 0.00 | 0.00 | 0.00 | 25 | 1009.7 |
| 20260509151410 | 27 | 225 | 0.0 | 3.2 | 0.00 | 0.00 | 0.00 | 25 | 1010.0 |
| 20260509150910 | 27 | 248 | 0.0 | 3.2 | 0.00 | 0.00 | 0.00 | 25 | 1010.0 |
| 20260509150410 | 27 | 203 | 0.0 | 1.6 | 0.00 | 0.00 | 0.00 | 27 | 1009.7 |
| 20260509145910 | 26 | 293 | 0.0 | 3.2 | 0.00 | 0.00 | 0.00 | 27 | 1010.0 |
| 20260509145412 | 26 | 180 | 0.0 | 3.2 | 0.00 | 0.00 | 0.00 | 27 | 1009.7 |
| 20260509145142 | 26 | 270 | 0.0 | 1.6 | 0.00 | 0.00 | 0.00 | 27 | 1010.0 |
| 20260509144412 | 25 | 68 | 0.0 | 1.6 | 0.00 | 0.00 | 0.00 | 27 | 1010.0 |
| 20260509144143 | 25 | 68 | 0.0 | 1.6 | 0.00 | 0.00 | 0.00 | 27 | 1010.0 |
| 20260509143411 | 25 | 248 | 0.0 | 1.6 | 0.00 | 0.00 | 0.00 | 29 | 1009.7 |
| 20260509142914 | 24 | 225 | 0.0 | 0.0 | 0.00 | 0.00 | 0.00 | 30 | 1010.0 |
| 20260509142910 | 24 | 338 | 0.0 | 0.0 | 0.00 | 0.00 | 0.00 | 29 | 1010.0 |
| 20260509141910 | 23 | 338 | 0.0 | 1.6 | 0.00 | 0.00 | 0.00 | 30 | 1009.7 |
| 20260509141410 | 23 | 270 | 0.0 | 3.2 | 0.00 | 0.00 | 0.00 | 30 | 1009.7 |
| 20260509140911 | 23 | 90 | 0.0 | 3.2 | 0.00 | 0.00 | 0.00 | 30 | 1009.7 |
| 20260509140642 | 23 | 68 | 0.0 | 1.6 | 0.00 | 0.00 | 0.00 | 30 | 1009.7 |
| 20260509140142 | 22 | 68 | 0.0 | 1.6 | 0.00 | 0.00 | 0.00 | 30 | 1009.3 |
| 20260509135411 | 22 | 23 | 0.0 | 1.6 | 0.00 | 0.00 | 0.00 | 30 | 1009.3 |
| 20260509134911 | 22 | 248 | 0.0 | 1.6 | 0.00 | 0.00 | 0.00 | 30 | 1009.7 |
| 20260509134409 | 22 | 90 | 0.0 | 1.6 | 0.00 | 0.00 | 0.00 | 31 | 1009.7 |
| 20260509133912 | 22 | 203 | 0.0 | 3.2 | 0.00 | 0.00 | 0.00 | 30 | 1009.3 |
| 20260509133410 | 21 | 338 | 0.0 | 3.2 | 0.00 | 0.00 | 0.00 | 30 | 1009.3 |
| 20260509132910 | 21 | 23 | 0.0 | 3.2 | 0.00 | 0.00 | 0.00 | 30 | 1009.3 |
| 20260509132411 | 21 | 23 | 0.0 | 3.2 | 0.00 | 0.00 | 0.00 | 29 | 1009.0 |
| 20260509131911 | 21 | 225 | 0.0 | 3.2 | 0.00 | 0.00 | 0.00 | 29 | 1009.3 |
| 20260509131411 | 21 | 270 | 0.0 | 3.2 | 0.00 | 0.00 | 0.00 | 29 | 1009.0 |
| 20260509130912 | 21 | 23 | 0.0 | 3.2 | 0.00 | 0.00 | 0.00 | 29 | 1009.0 |
| 20260509130411 | 21 | 225 | 0.0 | 3.2 | 0.00 | 0.00 | 0.00 | 30 | 1009.0 |
| 20260509125902 | 21 | 135 | 0.0 | 3.2 | 0.00 | 0.00 | 0.00 | 30 | 1009.0 |
| 20260509125352 | 21 | 23 | 0.0 | 3.2 | 0.00 | 0.00 | 0.00 | 30 | 1009.0 |
| 20260509124855 | 21 | 203 | 0.0 | 3.2 | 0.00 | 0.00 | 0.00 | 30 | 1009.0 |
| 20260509124851 | 21 | 113 | 0.0 | 3.2 | 0.00 | 0.00 | 0.00 | 30 | 1008.7 |
| 20260509124123 | 21 | 338 | 0.0 | 3.2 | 0.00 | 0.00 | 0.00 | 30 | 1008.7 |
| 20260509123353 | 21 | 315 | 0.0 | 0.0 | 0.00 | 0.00 | 0.00 | 30 | 1008.7 |
| 20260509122852 | 21 | 293 | 0.0 | 0.0 | 0.00 | 0.00 | 0.00 | 30 | 1008.7 |
| 20260509122353 | 21 | 23 | 0.0 | 0.0 | 0.00 | 0.00 | 0.00 | 30 | 1008.3 |
| 20260509121854 | 21 | 203 | 0.0 | 0.0 | 0.00 | 0.00 | 0.00 | 30 | 1008.3 |
| 20260509121352 | 21 | 338 | 0.0 | 0.0 | 0.00 | 0.00 | 0.00 | 30 | 1008.3 |
| 20260509120852 | 21 | 270 | 0.0 | 0.0 | 0.00 | 0.00 | 0.00 | 29 | 1008.3 |
| 20260509120351 | 21 | 293 | 0.0 | 0.0 | 0.00 | 0.00 | 0.00 | 30 | 1008.3 |
| 20260509115851 | 21 | 45 | 0.0 | 0.0 | 0.00 | 0.00 | 0.00 | 31 | 1008.3 |
| 20260509115351 | 21 | 0 | 0.0 | 0.0 | 0.00 | 0.00 | 0.00 | 30 | 1008.3 |
| 20260509114853 | 21 | 315 | 0.0 | 0.0 | 0.00 | 0.00 | 0.00 | 30 | 1008.0 |
| 20260509114353 | 21 | 113 | 0.0 | 0.0 | 0.00 | 0.00 | 0.00 | 30 | 1008.0 |
| 20260509113852 | 22 | 270 | 0.0 | 0.0 | 0.00 | 0.00 | 0.00 | 31 | 1008.0 |
| 20260509113353 | 22 | 0 | 0.0 | 0.0 | 0.00 | 0.00 | 0.00 | 30 | 1008.0 |
| 20260509112852 | 22 | 90 | 0.0 | 0.0 | 0.00 | 0.00 | 0.00 | 31 | 1008.0 |
| 20260509112351 | 22 | 45 | 0.0 | 0.0 | 0.00 | 0.00 | 0.00 | 32 | 1008.0 |
| 20260509112122 | 22 | 23 | 0.0 | 0.0 | 0.00 | 0.00 | 0.00 | 31 | 1008.0 |
| 20260509111352 | 22 | 68 | 0.0 | 4.8 | 0.00 | 0.00 | 0.00 | 31 | 1008.0 |
| 20260509110851 | 22 | 23 | 0.0 | 4.8 | 0.00 | 0.00 | 0.00 | 31 | 1008.0 |
| 20260509110353 | 22 | 90 | 0.0 | 0.0 | 0.00 | 0.00 | 0.00 | 30 | 1008.0 |
| 20260509110124 | 22 | 45 | 0.0 | 0.0 | 0.00 | 0.00 | 0.00 | 30 | 1008.0 |
| 20260509105352 | 22 | 0 | 0.0 | 0.0 | 0.00 | 0.00 | 0.00 | 30 | 1008.0 |
| 20260509104853 | 22 | 23 | 0.0 | 0.0 | 0.00 | 0.00 | 0.00 | 31 | 1007.6 |
| 20260509104623 | 22 | 203 | 0.0 | 4.8 | 0.00 | 0.00 | 0.00 | 31 | 1007.6 |
| 20260509103852 | 22 | 45 | 1.6 | 4.8 | 0.00 | 0.00 | 0.00 | 32 | 1008.0 |
| 20260509103351 | 22 | 68 | 0.0 | 3.2 | 0.00 | 0.00 | 0.00 | 31 | 1007.6 |
| 20260509102852 | 22 | 203 | 0.0 | 0.0 | 0.00 | 0.00 | 0.00 | 31 | 1007.6 |
| 20260509102351 | 23 | 0 | 0.0 | 0.0 | 0.00 | 0.00 | 0.00 | 32 | 1007.6 |
| 20260509101853 | 23 | 0 | 0.0 | 0.0 | 0.00 | 0.00 | 0.00 | 31 | 1007.6 |
| 20260509101352 | 23 | 23 | 0.0 | 0.0 | 0.00 | 0.00 | 0.00 | 31 | 1007.6 |
| 20260509100853 | 23 | 23 | 0.0 | 0.0 | 0.00 | 0.00 | 0.00 | 31 | 1007.6 |
| 20260509100353 | 23 | 68 | 0.0 | 0.0 | 0.00 | 0.00 | 0.00 | 31 | 1008.0 |
| 20260509095852 | 23 | 293 | 0.0 | 0.0 | 0.00 | 0.00 | 0.00 | 31 | 1007.6 |
| 20260509095353 | 23 | 293 | 0.0 | 0.0 | 0.00 | 0.00 | 0.00 | 31 | 1007.6 |
| 20260509095122 | 23 | 270 | 0.0 | 0.0 | 0.00 | 0.00 | 0.00 | 31 | 1007.6 |
| 20260509094352 | 23 | 293 | 0.0 | 0.0 | 0.00 | 0.00 | 0.00 | 32 | 1007.6 |
| 20260509094121 | 23 | 315 | 0.0 | 0.0 | 0.00 | 0.00 | 0.00 | 31 | 1007.6 |
| 20260509093351 | 23 | 315 | 0.0 | 0.0 | 0.00 | 0.00 | 0.00 | 30 | 1007.6 |
| 20260509092852 | 23 | 0 | 0.0 | 0.0 | 0.00 | 0.00 | 0.00 | 30 | 1008.0 |
| 20260509092353 | 23 | 0 | 0.0 | 0.0 | 0.00 | 0.00 | 0.00 | 30 | 1007.6 |
| 20260509091852 | 24 | 0 | 0.0 | 0.0 | 0.00 | 0.00 | 0.00 | 30 | 1008.0 |